Year,Month,Day,Hour,Minute,Value (Times are PST for temperature in C)
2009,06,01,00,00,14.10
2009,06,01,00,01,14.10
2009,06,01,00,02,14.10
2009,06,01,00,03,14.10
2009,06,01,00,04,14.10
2009,06,01,00,05,14.10
2009,06,01,00,06,14.10
2009,06,01,00,07,14.10
2009,06,01,00,08,14.10
2009,06,01,00,09,14.10
2009,06,01,00,10,14.10
2009,06,01,00,11,14.00
2009,06,01,00,12,14.00
2009,06,01,00,13,14.00
2009,06,01,00,14,14.00
2009,06,01,00,15,14.00
2009,06,01,00,16,14.00
2009,06,01,00,17,14.00
2009,06,01,00,18,14.00
2009,06,01,00,19,13.90
2009,06,01,00,20,13.90
2009,06,01,00,21,13.90
2009,06,01,00,22,13.80
2009,06,01,00,23,13.80
2009,06,01,00,24,13.80
2009,06,01,00,25,13.80
2009,06,01,00,26,13.80
2009,06,01,00,27,13.70
2009,06,01,00,28,13.70
2009,06,01,00,29,13.70
2009,06,01,00,30,13.70
2009,06,01,00,31,13.70
2009,06,01,00,32,13.60
2009,06,01,00,33,13.60
2009,06,01,00,34,13.60
2009,06,01,00,35,13.60
2009,06,01,00,36,13.60
2009,06,01,00,37,13.50
2009,06,01,00,38,13.50
2009,06,01,00,39,13.50
2009,06,01,00,40,13.40
2009,06,01,00,41,13.40
2009,06,01,00,42,13.40
2009,06,01,00,43,13.30
2009,06,01,00,44,13.30
2009,06,01,00,45,13.30
2009,06,01,00,46,13.20
2009,06,01,00,47,13.20
2009,06,01,00,48,13.20
2009,06,01,00,49,13.20
2009,06,01,00,50,13.20
2009,06,01,00,51,13.10
2009,06,01,00,52,13.10
2009,06,01,00,53,13.10
2009,06,01,00,54,13.10
2009,06,01,00,55,13.00
2009,06,01,00,56,13.00
2009,06,01,00,57,13.00
2009,06,01,00,58,12.90
2009,06,01,00,59,12.90
2009,06,01,01,00,12.90
2009,06,01,01,01,12.90
2009,06,01,01,02,12.90
2009,06,01,01,03,12.90
2009,06,01,01,04,12.80
2009,06,01,01,05,12.80
2009,06,01,01,06,12.80
2009,06,01,01,07,12.80
2009,06,01,01,08,12.80
2009,06,01,01,09,12.80
2009,06,01,01,10,12.80
2009,06,01,01,11,12.80
2009,06,01,01,12,12.80
2009,06,01,01,13,12.80
2009,06,01,01,14,12.80
2009,06,01,01,15,12.80
2009,06,01,01,16,12.80
2009,06,01,01,17,12.80
2009,06,01,01,18,12.80
2009,06,01,01,19,12.80
2009,06,01,01,20,12.80
2009,06,01,01,21,12.80
2009,06,01,01,22,12.80
2009,06,01,01,23,12.80
2009,06,01,01,24,12.80
2009,06,01,01,25,12.80
2009,06,01,01,26,12.80
2009,06,01,01,27,12.80
2009,06,01,01,28,12.80
2009,06,01,01,29,12.80
2009,06,01,01,30,12.80
2009,06,01,01,31,12.80
2009,06,01,01,32,12.80
2009,06,01,01,33,12.80
2009,06,01,01,34,12.80
2009,06,01,01,35,12.80
2009,06,01,01,36,12.80
2009,06,01,01,37,12.80
2009,06,01,01,38,12.90
2009,06,01,01,39,12.90
2009,06,01,01,40,12.90
2009,06,01,01,41,12.90
2009,06,01,01,42,12.90
2009,06,01,01,43,12.90
2009,06,01,01,44,12.90
2009,06,01,01,45,12.90
2009,06,01,01,46,13.00
2009,06,01,01,47,12.90
2009,06,01,01,48,12.90
2009,06,01,01,49,12.90
2009,06,01,01,50,12.90
2009,06,01,01,51,12.90
2009,06,01,01,52,12.90
2009,06,01,01,53,13.00
2009,06,01,01,54,13.00
2009,06,01,01,55,13.00
2009,06,01,01,56,13.00
2009,06,01,01,57,13.00
2009,06,01,01,58,13.00
2009,06,01,01,59,13.00
2009,06,01,02,00,13.00
2009,06,01,02,01,13.00
2009,06,01,02,02,13.00
2009,06,01,02,03,13.10
2009,06,01,02,04,13.10
2009,06,01,02,05,13.10
2009,06,01,02,06,13.00
2009,06,01,02,07,13.10
2009,06,01,02,08,13.00
2009,06,01,02,09,13.00
2009,06,01,02,10,13.00
2009,06,01,02,11,13.00
2009,06,01,02,12,13.00
2009,06,01,02,13,13.00
2009,06,01,02,14,13.10
2009,06,01,02,15,13.10
2009,06,01,02,16,13.10
2009,06,01,02,17,13.20
2009,06,01,02,18,13.20
2009,06,01,02,19,13.30
2009,06,01,02,20,13.40
2009,06,01,02,21,13.40
2009,06,01,02,22,13.40
2009,06,01,02,23,13.50
2009,06,01,02,24,13.60
2009,06,01,02,25,13.60
2009,06,01,02,26,13.70
2009,06,01,02,27,13.70
2009,06,01,02,28,13.80
2009,06,01,02,29,13.80
2009,06,01,02,30,13.80
2009,06,01,02,31,13.80
2009,06,01,02,32,13.80
2009,06,01,02,33,13.90
2009,06,01,02,34,13.90
2009,06,01,02,35,13.90
2009,06,01,02,36,13.90
2009,06,01,02,37,13.90
2009,06,01,02,38,13.90
2009,06,01,02,39,14.00
2009,06,01,02,40,14.00
2009,06,01,02,41,14.00
2009,06,01,02,42,14.00
2009,06,01,02,43,13.90
2009,06,01,02,44,13.90
2009,06,01,02,45,13.90
2009,06,01,02,46,13.90
2009,06,01,02,47,13.80
2009,06,01,02,48,13.80
2009,06,01,02,49,13.80
2009,06,01,02,50,13.80
2009,06,01,02,51,13.80
2009,06,01,02,52,13.80
2009,06,01,02,53,13.80
2009,06,01,02,54,13.80
2009,06,01,02,55,13.80
2009,06,01,02,56,13.80
2009,06,01,02,57,13.80
2009,06,01,02,58,13.80
2009,06,01,02,59,13.80
2009,06,01,03,00,13.80
2009,06,01,03,01,13.80
2009,06,01,03,02,13.80
2009,06,01,03,03,13.80
2009,06,01,03,04,13.80
2009,06,01,03,05,13.80
2009,06,01,03,06,13.80
2009,06,01,03,07,13.80
2009,06,01,03,08,13.80
2009,06,01,03,09,13.80
2009,06,01,03,10,13.80
2009,06,01,03,11,13.80
2009,06,01,03,12,13.80
2009,06,01,03,13,13.80
2009,06,01,03,14,13.80
2009,06,01,03,15,13.80
2009,06,01,03,16,13.80
2009,06,01,03,17,13.80
2009,06,01,03,18,13.80
2009,06,01,03,19,13.80
2009,06,01,03,20,13.80
2009,06,01,03,21,13.80
2009,06,01,03,22,13.80
2009,06,01,03,23,13.80
2009,06,01,03,24,13.80
2009,06,01,03,25,13.80
2009,06,01,03,26,13.80
2009,06,01,03,27,13.80
2009,06,01,03,28,13.80
2009,06,01,03,29,13.80
2009,06,01,03,30,13.80
2009,06,01,03,31,13.80
2009,06,01,03,32,13.70
2009,06,01,03,33,13.70
2009,06,01,03,34,13.70
2009,06,01,03,35,13.70
2009,06,01,03,36,13.60
2009,06,01,03,37,13.60
2009,06,01,03,38,13.60
2009,06,01,03,39,13.50
2009,06,01,03,40,13.40
2009,06,01,03,41,13.40
2009,06,01,03,42,13.30
2009,06,01,03,43,13.30
2009,06,01,03,44,13.20
2009,06,01,03,45,13.20
2009,06,01,03,46,13.20
2009,06,01,03,47,13.10
2009,06,01,03,48,13.10
2009,06,01,03,49,13.10
2009,06,01,03,50,13.10
2009,06,01,03,51,13.00
2009,06,01,03,52,13.00
2009,06,01,03,53,13.00
2009,06,01,03,54,12.90
2009,06,01,03,55,12.90
2009,06,01,03,56,12.90
2009,06,01,03,57,12.90
2009,06,01,03,58,12.80
2009,06,01,03,59,12.80
2009,06,01,04,00,12.80
2009,06,01,04,01,12.70
2009,06,01,04,02,12.70
2009,06,01,04,03,12.60
2009,06,01,04,04,12.60
2009,06,01,04,05,12.60
2009,06,01,04,06,12.50
2009,06,01,04,07,12.50
2009,06,01,04,08,12.50
2009,06,01,04,09,12.40
2009,06,01,04,10,12.40
2009,06,01,04,11,12.40
2009,06,01,04,12,12.40
2009,06,01,04,13,12.40
2009,06,01,04,14,12.40
2009,06,01,04,15,12.40
2009,06,01,04,16,12.30
2009,06,01,04,17,12.30
2009,06,01,04,18,12.30
2009,06,01,04,19,12.30
2009,06,01,04,20,12.30
2009,06,01,04,21,12.30
2009,06,01,04,22,12.30
2009,06,01,04,23,12.30
2009,06,01,04,24,12.30
2009,06,01,04,25,12.30
2009,06,01,04,26,12.30
2009,06,01,04,27,12.30
2009,06,01,04,28,12.30
2009,06,01,04,29,12.30
2009,06,01,04,30,12.30
2009,06,01,04,31,12.30
2009,06,01,04,32,12.30
2009,06,01,04,33,12.40
2009,06,01,04,34,12.40
2009,06,01,04,35,12.40
2009,06,01,04,36,12.40
2009,06,01,04,37,12.50
2009,06,01,04,38,12.50
2009,06,01,04,39,12.60
2009,06,01,04,40,12.60
2009,06,01,04,41,12.60
2009,06,01,04,42,12.70
2009,06,01,04,43,12.70
2009,06,01,04,44,12.70
2009,06,01,04,45,12.70
2009,06,01,04,46,12.70
2009,06,01,04,47,12.70
2009,06,01,04,48,12.70
2009,06,01,04,49,12.70
2009,06,01,04,50,12.70
2009,06,01,04,51,12.70
2009,06,01,04,52,12.70
2009,06,01,04,53,12.70
2009,06,01,04,54,12.70
2009,06,01,04,55,12.80
2009,06,01,04,56,12.80
2009,06,01,04,57,12.80
2009,06,01,04,58,12.80
2009,06,01,04,59,12.80
2009,06,01,05,00,12.80
2009,06,01,05,01,12.80
2009,06,01,05,02,12.80
2009,06,01,05,03,12.80
2009,06,01,05,04,12.80
2009,06,01,05,05,12.90
2009,06,01,05,06,12.90
2009,06,01,05,07,12.90
2009,06,01,05,08,13.00
2009,06,01,05,09,13.00
2009,06,01,05,10,13.00
2009,06,01,05,11,13.00
2009,06,01,05,12,13.00
2009,06,01,05,13,13.00
2009,06,01,05,14,13.00
2009,06,01,05,15,13.00
2009,06,01,05,16,13.00
2009,06,01,05,17,13.00
2009,06,01,05,18,13.00
2009,06,01,05,19,13.10
2009,06,01,05,20,13.10
2009,06,01,05,21,13.10
2009,06,01,05,22,13.10
2009,06,01,05,23,13.20
2009,06,01,05,24,13.20
2009,06,01,05,25,13.20
2009,06,01,05,26,13.30
2009,06,01,05,27,13.30
2009,06,01,05,28,13.30
2009,06,01,05,29,13.30
2009,06,01,05,30,13.30
2009,06,01,05,31,13.40
2009,06,01,05,32,13.40
2009,06,01,05,33,13.40
2009,06,01,05,34,13.40
2009,06,01,05,35,13.40
2009,06,01,05,36,13.30
2009,06,01,05,37,13.30
2009,06,01,05,38,13.30
2009,06,01,05,39,13.30
2009,06,01,05,40,13.30
2009,06,01,05,41,13.30
2009,06,01,05,42,13.30
2009,06,01,05,43,13.30
2009,06,01,05,44,13.40
2009,06,01,05,45,13.40
2009,06,01,05,46,13.40
2009,06,01,05,47,13.40
2009,06,01,05,48,13.40
2009,06,01,05,49,13.40
2009,06,01,05,50,13.40
2009,06,01,05,51,13.40
2009,06,01,05,52,13.40
2009,06,01,05,53,13.30
2009,06,01,05,54,13.30
2009,06,01,05,55,13.30
2009,06,01,05,56,13.30
2009,06,01,05,57,13.30
2009,06,01,05,58,13.40
2009,06,01,05,59,13.40
2009,06,01,06,00,13.50
2009,06,01,06,01,13.50
2009,06,01,06,02,13.60
2009,06,01,06,03,13.60
2009,06,01,06,04,13.70
2009,06,01,06,05,13.70
2009,06,01,06,06,13.70
2009,06,01,06,07,13.70
2009,06,01,06,08,13.80
2009,06,01,06,09,13.80
2009,06,01,06,10,13.80
2009,06,01,06,11,13.80
2009,06,01,06,12,13.80
2009,06,01,06,13,13.90
2009,06,01,06,14,13.90
2009,06,01,06,15,13.90
2009,06,01,06,16,13.90
2009,06,01,06,17,14.00
2009,06,01,06,18,14.10
2009,06,01,06,19,14.10
2009,06,01,06,20,14.20
2009,06,01,06,21,14.20
2009,06,01,06,22,14.30
2009,06,01,06,23,14.30
2009,06,01,06,24,14.40
2009,06,01,06,25,14.40
2009,06,01,06,26,14.50
2009,06,01,06,27,14.50
2009,06,01,06,28,14.60
2009,06,01,06,29,14.60
2009,06,01,06,30,14.60
2009,06,01,06,31,14.70
2009,06,01,06,32,14.70
2009,06,01,06,33,14.80
2009,06,01,06,34,14.80
2009,06,01,06,35,14.80
2009,06,01,06,36,14.90
2009,06,01,06,37,15.00
2009,06,01,06,38,15.00
2009,06,01,06,39,15.00
2009,06,01,06,40,15.00
2009,06,01,06,41,15.00
2009,06,01,06,42,15.00
2009,06,01,06,43,15.10
2009,06,01,06,44,15.20
2009,06,01,06,45,15.20
2009,06,01,06,46,15.30
2009,06,01,06,47,15.30
2009,06,01,06,48,15.30
2009,06,01,06,49,15.40
2009,06,01,06,50,15.40
2009,06,01,06,51,15.50
2009,06,01,06,52,15.60
2009,06,01,06,53,15.60
2009,06,01,06,54,15.70
2009,06,01,06,55,15.70
2009,06,01,06,56,15.80
2009,06,01,06,57,15.80
2009,06,01,06,58,15.90
2009,06,01,06,59,15.90
2009,06,01,07,00,16.00
2009,06,01,07,01,16.10
2009,06,01,07,02,16.10
2009,06,01,07,03,16.10
2009,06,01,07,04,16.20
2009,06,01,07,05,16.20
2009,06,01,07,06,16.20
2009,06,01,07,07,16.20
2009,06,01,07,08,16.30
2009,06,01,07,09,16.30
2009,06,01,07,10,16.30
2009,06,01,07,11,16.30
2009,06,01,07,12,16.30
2009,06,01,07,13,16.40
2009,06,01,07,14,16.40
2009,06,01,07,15,16.50
2009,06,01,07,16,16.60
2009,06,01,07,17,16.60
2009,06,01,07,18,16.70
2009,06,01,07,19,16.70
2009,06,01,07,20,16.70
2009,06,01,07,21,16.80
2009,06,01,07,22,16.90
2009,06,01,07,23,16.90
2009,06,01,07,24,17.00
2009,06,01,07,25,17.10
2009,06,01,07,26,17.10
2009,06,01,07,27,17.10
2009,06,01,07,28,17.10
2009,06,01,07,29,17.10
2009,06,01,07,30,17.20
2009,06,01,07,31,17.20
2009,06,01,07,32,17.20
2009,06,01,07,33,17.20
2009,06,01,07,34,17.30
2009,06,01,07,35,17.30
2009,06,01,07,36,17.30
2009,06,01,07,37,17.30
2009,06,01,07,38,17.40
2009,06,01,07,39,17.40
2009,06,01,07,40,17.50
2009,06,01,07,41,17.50
2009,06,01,07,42,17.60
2009,06,01,07,43,17.60
2009,06,01,07,44,17.70
2009,06,01,07,45,17.70
2009,06,01,07,46,17.80
2009,06,01,07,47,17.90
2009,06,01,07,48,18.00
2009,06,01,07,49,18.10
2009,06,01,07,50,18.20
2009,06,01,07,51,18.20
2009,06,01,07,52,18.20
2009,06,01,07,53,18.30
2009,06,01,07,54,18.30
2009,06,01,07,55,18.30
2009,06,01,07,56,18.30
2009,06,01,07,57,18.40
2009,06,01,07,58,18.30
2009,06,01,07,59,18.40
2009,06,01,08,00,18.40
2009,06,01,08,01,18.40
2009,06,01,08,02,18.40
2009,06,01,08,03,18.40
2009,06,01,08,04,18.50
2009,06,01,08,05,18.50
2009,06,01,08,06,18.50
2009,06,01,08,07,18.50
2009,06,01,08,08,18.50
2009,06,01,08,09,18.60
2009,06,01,08,10,18.60
2009,06,01,08,11,18.60
2009,06,01,08,12,18.60
2009,06,01,08,13,18.60
2009,06,01,08,14,18.60
2009,06,01,08,15,18.60
2009,06,01,08,16,18.70
2009,06,01,08,17,18.70
2009,06,01,08,18,18.70
2009,06,01,08,19,18.70
2009,06,01,08,20,18.80
2009,06,01,08,21,18.80
2009,06,01,08,22,18.80
2009,06,01,08,23,18.90
2009,06,01,08,24,18.90
2009,06,01,08,25,18.90
2009,06,01,08,26,19.00
2009,06,01,08,27,19.00
2009,06,01,08,28,19.10
2009,06,01,08,29,19.10
2009,06,01,08,30,19.10
2009,06,01,08,31,19.20
2009,06,01,08,32,19.20
2009,06,01,08,33,19.30
2009,06,01,08,34,19.30
2009,06,01,08,35,19.30
2009,06,01,08,36,19.40
2009,06,01,08,37,19.40
2009,06,01,08,38,19.60
2009,06,01,08,39,19.70
2009,06,01,08,40,19.90
2009,06,01,08,41,20.00
2009,06,01,08,42,20.10
2009,06,01,08,43,20.20
2009,06,01,08,44,20.30
2009,06,01,08,45,20.30
2009,06,01,08,46,20.30
2009,06,01,08,47,20.30
2009,06,01,08,48,20.30
2009,06,01,08,49,20.30
2009,06,01,08,50,20.20
2009,06,01,08,51,20.20
2009,06,01,08,52,20.20
2009,06,01,08,53,20.20
2009,06,01,08,54,20.20
2009,06,01,08,55,20.20
2009,06,01,08,56,20.30
2009,06,01,08,57,20.30
2009,06,01,08,58,20.40
2009,06,01,08,59,20.40
2009,06,01,09,00,20.40
2009,06,01,09,01,20.40
2009,06,01,09,02,20.40
2009,06,01,09,03,20.30
2009,06,01,09,04,20.30
2009,06,01,09,05,20.30
2009,06,01,09,06,20.30
2009,06,01,09,07,20.30
2009,06,01,09,08,20.30
2009,06,01,09,09,20.20
2009,06,01,09,10,20.10
2009,06,01,09,11,20.10
2009,06,01,09,12,20.10
2009,06,01,09,13,20.20
2009,06,01,09,14,20.30
2009,06,01,09,15,20.30
2009,06,01,09,16,20.30
2009,06,01,09,17,20.40
2009,06,01,09,18,20.40
2009,06,01,09,19,20.40
2009,06,01,09,20,20.40
2009,06,01,09,21,20.30
2009,06,01,09,22,20.30
2009,06,01,09,23,20.30
2009,06,01,09,24,20.30
2009,06,01,09,25,20.40
2009,06,01,09,26,20.40
2009,06,01,09,27,20.40
2009,06,01,09,28,20.40
2009,06,01,09,29,20.50
2009,06,01,09,30,20.60
2009,06,01,09,31,20.70
2009,06,01,09,32,20.70
2009,06,01,09,33,20.70
2009,06,01,09,34,20.60
2009,06,01,09,35,20.70
2009,06,01,09,36,20.80
2009,06,01,09,37,20.90
2009,06,01,09,38,20.90
2009,06,01,09,39,21.00
2009,06,01,09,40,21.10
2009,06,01,09,41,21.20
2009,06,01,09,42,21.30
2009,06,01,09,43,21.30
2009,06,01,09,44,21.20
2009,06,01,09,45,21.20
2009,06,01,09,46,21.20
2009,06,01,09,47,21.20
2009,06,01,09,48,21.20
2009,06,01,09,49,21.30
2009,06,01,09,50,21.30
2009,06,01,09,51,21.30
2009,06,01,09,52,21.30
2009,06,01,09,53,21.40
2009,06,01,09,54,21.50
2009,06,01,09,55,21.60
2009,06,01,09,56,21.60
2009,06,01,09,57,21.70
2009,06,01,09,58,21.70
2009,06,01,09,59,21.80
2009,06,01,10,00,21.80
2009,06,01,10,01,21.70
2009,06,01,10,02,21.70
2009,06,01,10,03,21.70
2009,06,01,10,04,21.70
2009,06,01,10,05,21.80
2009,06,01,10,06,21.80
2009,06,01,10,07,21.80
2009,06,01,10,08,21.80
2009,06,01,10,09,21.80
2009,06,01,10,10,21.80
2009,06,01,10,11,21.80
2009,06,01,10,12,21.70
2009,06,01,10,13,21.70
2009,06,01,10,14,21.80
2009,06,01,10,15,21.80
2009,06,01,10,16,21.80
2009,06,01,10,17,21.80
2009,06,01,10,18,21.90
2009,06,01,10,19,21.90
2009,06,01,10,20,21.90
2009,06,01,10,21,21.90
2009,06,01,10,22,21.90
2009,06,01,10,23,21.90
2009,06,01,10,24,21.80
2009,06,01,10,25,21.80
2009,06,01,10,26,21.80
2009,06,01,10,27,21.80
2009,06,01,10,28,21.90
2009,06,01,10,29,22.00
2009,06,01,10,30,22.00
2009,06,01,10,31,22.10
2009,06,01,10,32,22.20
2009,06,01,10,33,22.20
2009,06,01,10,34,22.20
2009,06,01,10,35,22.30
2009,06,01,10,36,22.40
2009,06,01,10,37,22.40
2009,06,01,10,38,22.50
2009,06,01,10,39,22.50
2009,06,01,10,40,22.60
2009,06,01,10,41,22.60
2009,06,01,10,42,22.70
2009,06,01,10,43,22.80
2009,06,01,10,44,22.90
2009,06,01,10,45,22.90
2009,06,01,10,46,23.00
2009,06,01,10,47,23.00
2009,06,01,10,48,23.00
2009,06,01,10,49,23.00
2009,06,01,10,50,23.00
2009,06,01,10,51,23.10
2009,06,01,10,52,23.10
2009,06,01,10,53,23.20
2009,06,01,10,54,23.20
2009,06,01,10,55,23.30
2009,06,01,10,56,23.30
2009,06,01,10,57,23.40
2009,06,01,10,58,23.40
2009,06,01,10,59,23.40
2009,06,01,11,00,23.40
2009,06,01,11,01,23.40
2009,06,01,11,02,23.40
2009,06,01,11,03,23.40
2009,06,01,11,04,23.40
2009,06,01,11,05,23.40
2009,06,01,11,06,23.40
2009,06,01,11,07,23.50
2009,06,01,11,08,23.60
2009,06,01,11,09,23.60
2009,06,01,11,10,23.60
2009,06,01,11,11,23.60
2009,06,01,11,12,23.50
2009,06,01,11,13,23.60
2009,06,01,11,14,23.60
2009,06,01,11,15,23.50
2009,06,01,11,16,23.50
2009,06,01,11,17,23.50
2009,06,01,11,18,23.60
2009,06,01,11,19,23.60
2009,06,01,11,20,23.60
2009,06,01,11,21,23.60
2009,06,01,11,22,23.50
2009,06,01,11,23,23.40
2009,06,01,11,24,23.40
2009,06,01,11,25,23.40
2009,06,01,11,26,23.40
2009,06,01,11,27,23.40
2009,06,01,11,28,23.40
2009,06,01,11,29,23.50
2009,06,01,11,30,23.60
2009,06,01,11,31,23.60
2009,06,01,11,32,23.70
2009,06,01,11,33,23.80
2009,06,01,11,34,23.80
2009,06,01,11,35,23.90
2009,06,01,11,36,23.90
2009,06,01,11,37,23.90
2009,06,01,11,38,23.90
2009,06,01,11,39,23.90
2009,06,01,11,40,23.90
2009,06,01,11,41,23.90
2009,06,01,11,42,24.00
2009,06,01,11,43,24.00
2009,06,01,11,44,24.10
2009,06,01,11,45,24.10
2009,06,01,11,46,24.10
2009,06,01,11,47,24.10
2009,06,01,11,48,24.20
2009,06,01,11,49,24.20
2009,06,01,11,50,24.20
2009,06,01,11,51,24.30
2009,06,01,11,52,24.20
2009,06,01,11,53,24.20
2009,06,01,11,54,24.20
2009,06,01,11,55,24.20
2009,06,01,11,56,24.30
2009,06,01,11,57,24.30
2009,06,01,11,58,24.30
2009,06,01,11,59,24.40
2009,06,01,12,00,24.40
2009,06,01,12,01,24.40
2009,06,01,12,02,24.50
2009,06,01,12,03,24.70
2009,06,01,12,04,24.80
2009,06,01,12,05,24.90
2009,06,01,12,06,25.00
2009,06,01,12,07,25.10
2009,06,01,12,08,25.00
2009,06,01,12,09,24.90
2009,06,01,12,10,24.80
2009,06,01,12,11,24.70
2009,06,01,12,12,24.60
2009,06,01,12,13,24.50
2009,06,01,12,14,24.60
2009,06,01,12,15,24.60
2009,06,01,12,16,24.60
2009,06,01,12,17,24.70
2009,06,01,12,18,24.70
2009,06,01,12,19,24.70
2009,06,01,12,20,24.80
2009,06,01,12,21,24.80
2009,06,01,12,22,24.80
2009,06,01,12,23,24.70
2009,06,01,12,24,24.70
2009,06,01,12,25,24.70
2009,06,01,12,26,24.80
2009,06,01,12,27,24.80
2009,06,01,12,28,24.80
2009,06,01,12,29,24.80
2009,06,01,12,30,24.80
2009,06,01,12,31,24.70
2009,06,01,12,32,24.80
2009,06,01,12,33,24.80
2009,06,01,12,34,24.90
2009,06,01,12,35,24.90
2009,06,01,12,36,25.00
2009,06,01,12,37,25.00
2009,06,01,12,38,25.10
2009,06,01,12,39,25.10
2009,06,01,12,40,25.10
2009,06,01,12,41,25.10
2009,06,01,12,42,25.00
2009,06,01,12,43,25.00
2009,06,01,12,44,25.10
2009,06,01,12,45,25.00
2009,06,01,12,46,25.00
2009,06,01,12,47,25.00
2009,06,01,12,48,25.00
2009,06,01,12,49,24.90
2009,06,01,12,50,24.90
2009,06,01,12,51,24.90
2009,06,01,12,52,24.90
2009,06,01,12,53,25.00
2009,06,01,12,54,25.00
2009,06,01,12,55,25.10
2009,06,01,12,56,25.10
2009,06,01,12,57,25.10
2009,06,01,12,58,25.10
2009,06,01,12,59,25.10
2009,06,01,13,00,25.10
2009,06,01,13,01,25.20
2009,06,01,13,02,25.20
2009,06,01,13,03,25.20
2009,06,01,13,04,25.20
2009,06,01,13,05,25.20
2009,06,01,13,06,25.20
2009,06,01,13,07,25.20
2009,06,01,13,08,25.20
2009,06,01,13,09,25.20
2009,06,01,13,10,25.20
2009,06,01,13,11,25.20
2009,06,01,13,12,25.30
2009,06,01,13,13,25.40
2009,06,01,13,14,25.50
2009,06,01,13,15,25.50
2009,06,01,13,16,25.60
2009,06,01,13,17,25.70
2009,06,01,13,18,25.70
2009,06,01,13,19,25.70
2009,06,01,13,20,25.70
2009,06,01,13,21,25.60
2009,06,01,13,22,25.60
2009,06,01,13,23,25.60
2009,06,01,13,24,25.60
2009,06,01,13,25,25.70
2009,06,01,13,26,25.70
2009,06,01,13,27,25.80
2009,06,01,13,28,25.80
2009,06,01,13,29,25.80
2009,06,01,13,30,25.90
2009,06,01,13,31,25.90
2009,06,01,13,32,25.90
2009,06,01,13,33,25.90
2009,06,01,13,34,25.90
2009,06,01,13,35,25.90
2009,06,01,13,36,25.80
2009,06,01,13,37,25.80
2009,06,01,13,38,25.80
2009,06,01,13,39,25.80
2009,06,01,13,40,25.90
2009,06,01,13,41,25.90
2009,06,01,13,42,25.90
2009,06,01,13,43,26.00
2009,06,01,13,44,26.10
2009,06,01,13,45,26.10
2009,06,01,13,46,26.10
2009,06,01,13,47,26.10
2009,06,01,13,48,26.10
2009,06,01,13,49,26.20
2009,06,01,13,50,26.30
2009,06,01,13,51,26.30
2009,06,01,13,52,26.40
2009,06,01,13,53,26.40
2009,06,01,13,54,26.40
2009,06,01,13,55,26.40
2009,06,01,13,56,26.40
2009,06,01,13,57,26.40
2009,06,01,13,58,26.50
2009,06,01,13,59,26.60
2009,06,01,14,00,26.60
2009,06,01,14,01,26.70
2009,06,01,14,02,26.70
2009,06,01,14,03,26.80
2009,06,01,14,04,26.90
2009,06,01,14,05,27.00
2009,06,01,14,06,27.00
2009,06,01,14,07,26.90
2009,06,01,14,08,26.80
2009,06,01,14,09,26.60
2009,06,01,14,10,26.60
2009,06,01,14,11,26.60
2009,06,01,14,12,26.60
2009,06,01,14,13,26.60
2009,06,01,14,14,26.70
2009,06,01,14,15,26.70
2009,06,01,14,16,26.80
2009,06,01,14,17,26.90
2009,06,01,14,18,26.90
2009,06,01,14,19,26.90
2009,06,01,14,20,26.90
2009,06,01,14,21,26.90
2009,06,01,14,22,26.90
2009,06,01,14,23,26.80
2009,06,01,14,24,26.80
2009,06,01,14,25,26.80
2009,06,01,14,26,26.80
2009,06,01,14,27,26.70
2009,06,01,14,28,26.70
2009,06,01,14,29,26.80
2009,06,01,14,30,26.80
2009,06,01,14,31,26.80
2009,06,01,14,32,26.90
2009,06,01,14,33,27.00
2009,06,01,14,34,27.10
2009,06,01,14,35,27.10
2009,06,01,14,36,27.10
2009,06,01,14,37,27.10
2009,06,01,14,38,27.10
2009,06,01,14,39,27.10
2009,06,01,14,40,27.10
2009,06,01,14,41,27.00
2009,06,01,14,42,27.00
2009,06,01,14,43,27.00
2009,06,01,14,44,26.90
2009,06,01,14,45,26.90
2009,06,01,14,46,27.00
2009,06,01,14,47,27.10
2009,06,01,14,48,27.10
2009,06,01,14,49,27.10
2009,06,01,14,50,27.10
2009,06,01,14,51,27.00
2009,06,01,14,52,26.90
2009,06,01,14,53,27.00
2009,06,01,14,54,27.00
2009,06,01,14,55,27.00
2009,06,01,14,56,27.00
2009,06,01,14,57,27.00
2009,06,01,14,58,27.10
2009,06,01,14,59,27.10
2009,06,01,15,00,27.10
2009,06,01,15,01,27.10
2009,06,01,15,02,27.20
2009,06,01,15,03,27.20
2009,06,01,15,04,27.30
2009,06,01,15,05,27.30
2009,06,01,15,06,27.40
2009,06,01,15,07,27.40
2009,06,01,15,08,27.50
2009,06,01,15,09,27.60
2009,06,01,15,10,27.60
2009,06,01,15,11,27.70
2009,06,01,15,12,27.70
2009,06,01,15,13,27.80
2009,06,01,15,14,27.80
2009,06,01,15,15,27.90
2009,06,01,15,16,27.90
2009,06,01,15,17,28.00
2009,06,01,15,18,28.00
2009,06,01,15,19,28.10
2009,06,01,15,20,28.10
2009,06,01,15,21,28.00
2009,06,01,15,22,28.00
2009,06,01,15,23,28.00
2009,06,01,15,24,28.00
2009,06,01,15,25,27.90
2009,06,01,15,26,27.90
2009,06,01,15,27,28.00
2009,06,01,15,28,28.00
2009,06,01,15,29,28.10
2009,06,01,15,30,28.20
2009,06,01,15,31,28.20
2009,06,01,15,32,28.10
2009,06,01,15,33,28.10
2009,06,01,15,34,28.10
2009,06,01,15,35,28.10
2009,06,01,15,36,28.10
2009,06,01,15,37,28.10
2009,06,01,15,38,28.00
2009,06,01,15,39,28.00
2009,06,01,15,40,27.80
2009,06,01,15,41,27.80
2009,06,01,15,42,27.80
2009,06,01,15,43,27.80
2009,06,01,15,44,27.80
2009,06,01,15,45,27.80
2009,06,01,15,46,27.80
2009,06,01,15,47,27.80
2009,06,01,15,48,27.80
2009,06,01,15,49,27.80
2009,06,01,15,50,27.90
2009,06,01,15,51,27.90
2009,06,01,15,52,27.90
2009,06,01,15,53,28.00
2009,06,01,15,54,28.10
2009,06,01,15,55,28.10
2009,06,01,15,56,28.00
2009,06,01,15,57,28.00
2009,06,01,15,58,28.00
2009,06,01,15,59,28.00
2009,06,01,16,00,27.90
2009,06,01,16,01,27.90
2009,06,01,16,02,27.80
2009,06,01,16,03,27.80
2009,06,01,16,04,27.90
2009,06,01,16,05,28.00
2009,06,01,16,06,28.10
2009,06,01,16,07,28.20
2009,06,01,16,08,28.30
2009,06,01,16,09,28.40
2009,06,01,16,10,28.40
2009,06,01,16,11,28.30
2009,06,01,16,12,28.30
2009,06,01,16,13,28.10
2009,06,01,16,14,28.10
2009,06,01,16,15,28.10
2009,06,01,16,16,28.10
2009,06,01,16,17,28.20
2009,06,01,16,18,28.30
2009,06,01,16,19,28.30
2009,06,01,16,20,28.30
2009,06,01,16,21,28.30
2009,06,01,16,22,28.30
2009,06,01,16,23,28.30
2009,06,01,16,24,28.30
2009,06,01,16,25,28.30
2009,06,01,16,26,28.40
2009,06,01,16,27,28.50
2009,06,01,16,28,28.50
2009,06,01,16,29,28.40
2009,06,01,16,30,28.30
2009,06,01,16,31,28.30
2009,06,01,16,32,28.30
2009,06,01,16,33,28.30
2009,06,01,16,34,28.30
2009,06,01,16,35,28.30
2009,06,01,16,36,28.20
2009,06,01,16,37,28.20
2009,06,01,16,38,28.20
2009,06,01,16,39,28.10
2009,06,01,16,40,28.00
2009,06,01,16,41,28.00
2009,06,01,16,42,28.00
2009,06,01,16,43,28.00
2009,06,01,16,44,28.00
2009,06,01,16,45,28.00
2009,06,01,16,46,28.00
2009,06,01,16,47,27.90
2009,06,01,16,48,28.00
2009,06,01,16,49,28.10
2009,06,01,16,50,28.10
2009,06,01,16,51,28.10
2009,06,01,16,52,28.10
2009,06,01,16,53,28.10
2009,06,01,16,54,28.10
2009,06,01,16,55,28.10
2009,06,01,16,56,28.00
2009,06,01,16,57,28.10
2009,06,01,16,58,28.10
2009,06,01,16,59,28.10
2009,06,01,17,00,28.10
2009,06,01,17,01,28.10
2009,06,01,17,02,28.00
2009,06,01,17,03,28.00
2009,06,01,17,04,28.00
2009,06,01,17,05,28.00
2009,06,01,17,06,28.00
2009,06,01,17,07,28.10
2009,06,01,17,08,28.10
2009,06,01,17,09,28.20
2009,06,01,17,10,28.10
2009,06,01,17,11,28.10
2009,06,01,17,12,28.10
2009,06,01,17,13,28.00
2009,06,01,17,14,28.00
2009,06,01,17,15,28.00
2009,06,01,17,16,27.90
2009,06,01,17,17,27.80
2009,06,01,17,18,27.70
2009,06,01,17,19,27.70